OPTUS D2

Last updated on Jan. 21, 2021, 6:16 a.m. UTC

1 32252U 07044A   21020.86928684 -.00000175  00000-0  00000-0 0  9999
2 32252   0.0541 270.8058 0003651  29.2646 285.3018  1.00271249 48780
UTC
Height (km)
Latitude
Longitude
Inclination
Orbital Period
UTC large
Height (km)
Speed (km/s)
/
Latitude / Longitude
Inclination (degrees)
Orbital Period (minutes)
Azimuth
Elevation
Range (km)
Doppler Factor
iOS Compass Heading
iOS Angle

Next 30 passes for location: Hong Kong

Rise time Rise Azimuth (degrees) Set time Set Azimuth (degrees) Duration Max altitude (degrees)

No matching passes for this satellites